STARLINK-32320, 61638

Orbit data source: Space-Track

STARLINK-32320, 61638 is a payload satellite owned by SpaceX/Seattle (US) in LEO that was launched on Wed, 23 Oct 2024 UTC via an FALCON 9 launch vehicle from the Air Force Eastern Test Range (AFETR). Payload-class satellites include a variety of spacecraft equipped with specific instruments for various scientific and technological missions. These include communications satellites like Starlink; space stations such as the ISS; scientific satellites like the Hubble; Earth observation satellites from companies like Planet Labs, Umbra, and HawkEye 360; GPS; miniature CubeSats for education and research; and military/defense satellites.

Loading next visibility...
Identifier
61638, 2024-191T
Orbit
LEO
Country
Flag of USUS
Related business
Manufacturer
SpaceX/Seattle
Mission
Operational Commercial Communications
Bus & Motor
STARLINK V2M, Unknown motor
Mass
730 kg wet, ~700 kg dry
Launch date (UTC)
2024-10-23 (1 year ago)
Launch vehicle
FALCON 9
Launch site
Air Force Eastern Test Range (AFETR)
Object type
Payload
Rocket body
Debris
Shape & HBR
Box + 2 Pan, 17.7 m
Radar Cross Section
33.884 m², Large (>1 m²)

Expand to show TLE details & history
Last TLE update: 14 hours ago

TLE from 14 hours ago
0 STARLINK-32320
1 61638U 24191T   26034.24541325  .00002351  00000-0  94896-4 0  9993
2 61638  43.0018 352.9172 0000482 149.7426 210.3454 15.27592796 72223
Epoch: 2026-02-03T05:53Z
TLE epoch observation values (Epoch: 2026-02-03T05:53:23.704Z)
Latitude
-0°
Longitude
131.13932°
Altitude
483.072 km
Speed
7.626 km/s
True Right ascension
23h 31m 40s
True Declination
0° 00' 00"
Sunlit
Object was in daylight at epoch
Visualization orbit readout
Latitude
Unknown
Longitude
Unknown
Altitude
Unknown
Speed
Unknown
Apparent Right ascension
Unknown
Apparent Declination
Unknown
Sunlit
N/A
Visualization observer readout
Local Sidereal Time
21:57:27
Azimuth
Unknown
Elevation
Unknown
Doppler factor
Unknown
Orbital elements
Apogee altitude
485.286 km
Perigee altitude
484.625 km
Semi-major axis
6,863.093 km
Eccentricity
0.00005
Inclination
43.0018°
RAAN
352.9172°
Arg. of periapsis
149.7426°
True anomaly
210.34261°
Mean anomaly
210.3454°
Eccentric anomaly
210.344°
Mean motion
3.81736 °/min
Orbital period
94.31 mins
BSTAR
0.000094896
Loading maneuver chart data...
Computing Atmospheric mass density...
Loading historical data...
Loading historical data...
Loading historical data...
Loading historical data...
Loading historical data...
Loading historical data...
Loading historical data...

Documentation

Showing up to 5 results
|